Location: Observatory
(49.4490°N, 2.6360°W)
Time: 19:38:20
(UTC+01:00)

PRISM - Visible Passes

Search period start: 26 May 2024 00:00
Search period end: 05 June 2024 00:00
Orbit: 503 x 518 km, 98.2° (Epoch: 25 May)

Date Brightness Start Highest point End Pass type
(mag) Time Alt. Az. Time Alt. Az. Time Alt. Az.
28 May ? 22:23:45 10° WSW 22:25:35 13° W 22:27:26 10° WNW visible
29 May ? 22:06:05 10° SW 22:08:51 20° W 22:11:39 10° NW visible
30 May ? 21:48:51 10° SSW 21:52:08 29° W 21:55:27 10° NW visible
02 Jun ? 22:35:26 10° WSW 22:36:19 11° W 22:37:12 10° WNW visible
03 Jun ? 22:16:57 10° SW 22:19:22 16° W 22:21:46 10° NW visible
04 Jun ? 21:59:20 10° SSW 22:02:24 24° W 22:05:32 10° NW visible
